Lexington Weather

Lexington, Massachusetts, USA

47°F
12/8/2022 3:28pm 
  • Lexington Conditions: Clear
  • Temperature: 47.1°F / 8.4°CColder 2.0°F than last hour.
  • Dew Point: 34.7°FDecreased 0.7°Fsince last hour.
  • Relative Humidity: 62%Increased 3.0% since last hour.
  • Wind: Wind from NNW NNW Calm, 10-min avg: 2 mph, gust: 8 mph
  • Barometer: 30.09 inRising 0.02  inHg/hr Rising Slowly
  • Visibility: 10 miles
  • Rain Today: 0.00 in
  •   

Warning: Undefined variable $rc in /homepages/6/d276339138/htdocs/weather/20190804/ssi/nwsProduct.php on line 323

Warning: Undefined variable $rc in /homepages/6/d276339138/htdocs/weather/20190804/ssi/nwsProduct.php on line 325

Warning: Undefined variable $rc in /homepages/6/d276339138/htdocs/weather/20190804/ssi/nwsProduct.php on line 323

Warning: Undefined variable $rc in /homepages/6/d276339138/htdocs/weather/20190804/ssi/nwsProduct.php on line 325

Warning: Undefined variable $rc in /homepages/6/d276339138/htdocs/weather/20190804/ssi/nwsProduct.php on line 323

Warning: Undefined variable $rc in /homepages/6/d276339138/htdocs/weather/20190804/ssi/nwsProduct.php on line 325

Warning: Undefined variable $rc in /homepages/6/d276339138/htdocs/weather/20190804/ssi/nwsProduct.php on line 323

Warning: Undefined variable $rc in /homepages/6/d276339138/htdocs/weather/20190804/ssi/nwsProduct.php on line 325

Warning: Undefined variable $rc in /homepages/6/d276339138/htdocs/weather/20190804/ssi/nwsProduct.php on line 323

Warning: Undefined variable $rc in /homepages/6/d276339138/htdocs/weather/20190804/ssi/nwsProduct.php on line 325

Warning: Undefined variable $rc in /homepages/6/d276339138/htdocs/weather/20190804/ssi/nwsProduct.php on line 323

Warning: Undefined variable $rc in /homepages/6/d276339138/htdocs/weather/20190804/ssi/nwsProduct.php on line 325

Warning: Undefined variable $rc in /homepages/6/d276339138/htdocs/weather/20190804/ssi/nwsProduct.php on line 323

Warning: Undefined variable $rc in /homepages/6/d276339138/htdocs/weather/20190804/ssi/nwsProduct.php on line 325

Regional Weather Roundup
for Boston, MA

        
000
ASUS41 KBOX 020210
RWRBOX

REGIONAL WEATHER ROUNDUP
NATIONAL WEATHER SERVICE BOSTON/NORTON MA
900 PM EST THU DEC 01 2022

NOTE:  "FAIR" INDICATES FEW OR NO CLOUDS BELOW 12,000 FEET WITH NO 
SIGNIFICANT WEATHER AND/OR OBSTRUCTIONS TO VISIBILITY.

MAZALL-020300-
EASTERN MASSACHUSETTS
  
CITY           SKY/WX    TMP DP  RH WIND       PRES   REMARKS
BOSTON         PTCLDY    38  23  55 W13G23    30.32R WCI  30          
BEVERLY        CLEAR     32  21  64 SW6       30.30R WCI  26          
LAWRENCE       CLEAR     35  22  58 SW7       30.30R WCI  29          
BEDFORD        CLEAR     35  23  61 W7        30.29R WCI  29          
NORWOOD        CLEAR     38  23  55 W7        30.33R                  
MARSHFIELD       N/A     36  23  60 CALM      30.33R                  
PLYMOUTH       CLEAR     35  22  58 SW8       30.33R WCI  29          
TAUNTON          N/A    N/A N/A N/A MISG      30.34R                  
NEW BEDFORD    CLEAR     37  22  54 W9        30.34R WCI  30          
$$

MAZALL-020300-
CAPE COD AND THE ISLANDS
  
CITY           SKY/WX    TMP DP  RH WIND       PRES   REMARKS
FALMOUTH       CLEAR     36  21  55 NW14G22   30.33R WCI  27          
HYANNIS        CLEAR     36  22  56 W8        30.31R WCI  30          
CHATHAM        MOCLDY    38  21  50 W5        30.33R                  
PROVINCETOWN   MOCLDY    40  26  57 NW16G24   30.32R WCI  31          
NANTUCKET      PTCLDY    41  24  51 W20       30.34R WCI  32          
MARTHAS VNYRD  CLEAR     40  23  50 NW12      30.35R                  
$$
 
MAZALL-020300-
CENTRAL AND WESTERN MASSACHUSETTS
  
CITY           SKY/WX    TMP DP  RH WIND       PRES   REMARKS
WORCESTER      CLEAR     32  21  64 W9        30.28R WCI  24          
FITCHBURG      CLEAR     33  21  61 VRB3      30.31R                  
ORANGE         CLEAR     32  22  66 S6        30.32R WCI  26          
SPRINGFIELD    PTCLDY    35  20  54 W8        30.33R WCI  29          
WESTFIELD      CLEAR     36  20  52 VRB6      30.35R WCI  31          
NORTH ADAMS    PTCLDY    34  23  64 W22G30    30.33R WCI  22          
PITTSFIELD     CLOUDY    32  20  61 W8G17     30.32R WCI  25          
$$
 
RIZALL-020300-
RHODE ISLAND
  
CITY           SKY/WX    TMP DP  RH WIND       PRES   REMARKS
PROVIDENCE     CLEAR     36  21  54 W6        30.36R WCI  31          
NEWPORT        CLEAR     36  21  54 VRB7      30.36R WCI  30          
BLOCK ISLAND   CLEAR     38  20  48 NW14G23   30.40R WCI  30          
SMITHFIELD     CLEAR     34  21  59 W10       30.33R WCI  26          
WESTERLY       CLEAR     36  20  52 W5        30.39R                  
$$
 
CTZALL-020300-
CONNECTICUT
  
CITY           SKY/WX    TMP DP  RH WIND       PRES   REMARKS
BRADLEY INTL   PTCLDY    34  19  54 SW3       30.37R                  
HARTFORD       CLEAR     37  19  48 W3        30.39R                  
BRIDGEPORT     CLEAR     35  19  52 NW5       30.42R WCI  31          
DANBURY        CLEAR     34  18  52 NW5       30.41R WCI  30          
GROTON         CLEAR     38  20  48 W7        30.39R                  
NEW HAVEN      CLEAR     39  23  52 W7        30.41R                  
CHESTER        FAIR      34  18  51 W5        30.38R WCI  30          
MERIDEN        CLEAR     36  17  46 W7        30.39R WCI  30          
WILLIMANTIC    CLEAR     35  20  54 W3        30.37R                  
OXFORD         CLEAR     32  18  56 VRB5      30.38R WCI  27          
$$

MEZ002-015-021-024-NHZ003-005-008-011-012-014-VTZ005-008-020300-
NORTHERN NEW ENGLAND
  
CITY           SKY/WX    TMP DP  RH WIND       PRES   REMARKS
PORTLAND ME    CLEAR     33  17  51 NW12G18   30.23R WCI  24          
BANGOR ME      MOCLDY    32  16  51 NW13G20   30.15R WCI  22          
CONCORD NH     PTCLDY    28  19  69 VRB6      30.26R WCI  22          
MANCHESTER NH  CLEAR     35  21  56 W6        30.27R WCI  30          
NASHUA NH      CLEAR     35  22  58 W5        30.29R WCI  31          
PORTSMOUTH NH  PTCLDY    34  20  57 W10       30.26R WCI  26          
JAFFREY NH     PTCLDY    34  22  61 W7        30.27R WCI  28          
KEENE NH       CLEAR     34  24  67 VRB5        N/A  WCI  30          
BURLINGTON VT  PTCLDY    33  19  56 NE3       30.33R                  
MT. WASHINGTON SNOWSHWR   7   7 100 W78G89      N/A  VSB 1/16WCI -26  
$$

NYZ052-076-020300-
EASTERN NEW YORK
  
CITY           SKY/WX    TMP DP  RH WIND       PRES   REMARKS
ALBANY         MOCLDY    36  23  59 W8        30.39R WCI  30          
NEW YORK CITY  CLEAR     39  20  46 NW14      30.43R WCI  31          
$$
 
ANZALL-020300-
MARINE OBSERVATIONS
  
STATION/POSITION TIME  TEMP    WIND        PRES    VSBY  WAVE
                       AIR SEA DIR/SP/G                  HT/PER
                 (UTC) (F)     (DEG/KT/KT) (MB)    (MI)  (FT/S)
BOSTON BUOY      0150      51  280/ 17/ 25 1026.8R         3/ 4
BUZZARDS BAY     0100   40     290/ 21/ 24 1028.0R
NANTUCKET SOUND  0150   42     290/ 21/ 27 1027.1R         3/ 4
MASS BAY-STELLWA 0004   41 51  300/ 17/ 21 1023.5R  1 7/8  3/ 4
ISLE OF SHOALS   0100   38     280/ 21/ 26 1023.4R
S OF BLOCK IS    0156      56                N/A           7/ 6
$$

......................KEY.........................
  SKY/WX - SKY CONDITION/PRESENT WEATHER
  TMP    - TEMPERATURE IN FAHRENHEIT
  DWPT   - DEWPOINT IN FAHRENHEIT
  RH     - RELATIVE HUMIDITY IN PERCENT
  WIND   - DIRECTION AND SPEED IN MPH
  PRES   - MEAN SEA LEVEL PRESSURE IN INCHES OF HG
  WCI    - WIND CHILL INDEX
  VSB    - VISIBILITY IN MILES
  HX     - HEAT INDEX
  TC     - TEMPERATURE IN CELSIUS
  VRB    - VARIABLE WIND DIRECTION
  N/A    - NOT AVAILABLE
  
      

Other recent Regional Weather Roundups

Thu Dec 8, 3:10pm

Thu Dec 8, 2:10pm

Thu Dec 8, 1:10pm

Thu Dec 8, 12:10pm

Thu Dec 8, 11:10am

Thu Dec 8, 10:10am

Thu Dec 8, 9:10am

Thu Dec 8, 8:10am

Thu Dec 8, 7:10am

Thu Dec 8, 6:10am

Thu Dec 8, 5:10am

Thu Dec 8, 4:10am

Thu Dec 8, 3:10am

Thu Dec 8, 2:10am

Thu Dec 8, 1:10am

Thu Dec 8, 12:10am

Wed Dec 7, 11:10pm

Wed Dec 7, 10:10pm

Wed Dec 7, 9:10pm

Wed Dec 7, 8:10pm

Wed Dec 7, 7:10pm

Wed Dec 7, 6:10pm

Wed Dec 7, 5:10pm

Wed Dec 7, 4:10pm

Wed Dec 7, 3:10pm

Wed Dec 7, 2:10pm

Wed Dec 7, 1:10pm

Wed Dec 7, 12:10pm

Wed Dec 7, 11:10am

Wed Dec 7, 10:10am

Wed Dec 7, 9:10am

Wed Dec 7, 8:10am

Wed Dec 7, 7:10am

Wed Dec 7, 6:10am

Wed Dec 7, 5:10am

Wed Dec 7, 4:10am

Wed Dec 7, 3:10am

Wed Dec 7, 2:10am

Wed Dec 7, 1:10am

Wed Dec 7, 12:10am

Tue Dec 6, 11:10pm

Tue Dec 6, 10:10pm

Tue Dec 6, 9:10pm

Tue Dec 6, 8:10pm

Tue Dec 6, 7:10pm

Tue Dec 6, 6:10pm

Tue Dec 6, 5:10pm

Tue Dec 6, 4:10pm

Tue Dec 6, 3:10pm

Tue Dec 6, 2:10pm

Tue Dec 6, 1:10pm

Tue Dec 6, 12:10pm

Tue Dec 6, 11:10am

Tue Dec 6, 10:10am

Tue Dec 6, 9:10am

Tue Dec 6, 8:10am

Tue Dec 6, 7:10am

Tue Dec 6, 6:10am

Tue Dec 6, 5:10am

Tue Dec 6, 4:10am

Tue Dec 6, 3:10am

Tue Dec 6, 2:10am

Tue Dec 6, 1:10am

Tue Dec 6, 12:10am

Mon Dec 5, 11:10pm

Mon Dec 5, 10:10pm

Mon Dec 5, 9:10pm

Mon Dec 5, 8:10pm

Mon Dec 5, 7:10pm

Mon Dec 5, 6:10pm

Mon Dec 5, 5:10pm

Mon Dec 5, 4:10pm

Mon Dec 5, 3:10pm

Mon Dec 5, 2:10pm

Mon Dec 5, 1:10pm

Mon Dec 5, 12:10pm

Mon Dec 5, 11:10am

Mon Dec 5, 10:10am

Mon Dec 5, 9:10am

Mon Dec 5, 8:10am

Mon Dec 5, 7:10am

Mon Dec 5, 6:10am

Mon Dec 5, 5:10am

Mon Dec 5, 4:10am

Mon Dec 5, 3:10am

Mon Dec 5, 2:10am

Mon Dec 5, 1:10am

Mon Dec 5, 12:10am

Sun Dec 4, 11:10pm

Sun Dec 4, 10:10pm

Sun Dec 4, 9:10pm

Sun Dec 4, 8:10pm

Sun Dec 4, 7:10pm

Sun Dec 4, 6:10pm

Sun Dec 4, 5:10pm

Sun Dec 4, 4:10pm

Sun Dec 4, 3:10pm

Sun Dec 4, 2:10pm

Sun Dec 4, 1:10pm

Sun Dec 4, 12:10pm

Sun Dec 4, 11:10am

Sun Dec 4, 10:10am

Sun Dec 4, 9:10am

Sun Dec 4, 8:10am

Sun Dec 4, 7:10am

Sun Dec 4, 6:10am

Sun Dec 4, 5:10am

Sun Dec 4, 4:10am

Sun Dec 4, 3:10am

Sun Dec 4, 2:10am

Sun Dec 4, 1:10am

Sun Dec 4, 12:10am

Sat Dec 3, 11:10pm

Sat Dec 3, 10:10pm

Sat Dec 3, 9:10pm

Sat Dec 3, 8:10pm

Sat Dec 3, 7:10pm

Sat Dec 3, 6:10pm

Sat Dec 3, 5:10pm

Sat Dec 3, 4:10pm

Sat Dec 3, 3:10pm

Sat Dec 3, 2:10pm

Sat Dec 3, 1:10pm

Sat Dec 3, 12:10pm

Sat Dec 3, 11:10am

Sat Dec 3, 10:10am

Sat Dec 3, 9:10am

Sat Dec 3, 8:10am

Sat Dec 3, 7:10am

Sat Dec 3, 6:10am

Sat Dec 3, 5:10am

Sat Dec 3, 4:10am

Sat Dec 3, 3:10am

Sat Dec 3, 2:10am

Sat Dec 3, 1:10am

Sat Dec 3, 12:10am

Fri Dec 2, 11:10pm

Fri Dec 2, 10:10pm

Fri Dec 2, 9:10pm

Fri Dec 2, 8:10pm

Fri Dec 2, 7:10pm

Fri Dec 2, 6:10pm

Fri Dec 2, 5:10pm

Fri Dec 2, 4:10pm

Fri Dec 2, 3:10pm

Fri Dec 2, 2:10pm

Fri Dec 2, 1:10pm

Fri Dec 2, 12:10pm

Fri Dec 2, 11:10am

Fri Dec 2, 10:10am

Fri Dec 2, 9:10am

Fri Dec 2, 8:10am

Fri Dec 2, 7:10am

Fri Dec 2, 6:10am

Fri Dec 2, 5:10am

Fri Dec 2, 4:10am

Fri Dec 2, 3:10am

Fri Dec 2, 2:10am

Fri Dec 2, 1:10am

Fri Dec 2, 12:10am

Thu Dec 1, 11:10pm

Thu Dec 1, 10:10pm

Thu Dec 1, 8:10pm

Thu Dec 1, 7:10pm

Thu Dec 1, 6:10pm

Thu Dec 1, 5:10pm

Thu Dec 1, 4:10pm

Meta data:

ID: a406ad01-c6bb-47a3-84d9-5da26357c411
Link: https://api.weather.gov/products/a406ad01-c6bb-47a3-84d9-5da26357c411